Station Historical Data
Daily Summary for December 2, 2017 Units:  Metric    English   Both
« Previous Day
Next Day »
Daily Weekly Monthly Yearly Custom
  High: Low: Average:
Temperature: 11.9 °C 5.8 °C 8.4 °C
Dew Point: 6.4 °C -1.9 °C 2.9 °C
Humidity: 90 % 51 % 69 %
Wind Speed: 29 km/h 0 km/h 4.5 km/h
Wind Gust: 29 km/h - -
Wind:- - SE
Pressure: 1019.9 hPa 1016.5 hPa -
Precipitation: 0 mm    
Historical Graphs
 
 
Tabular Data for December 2, 2017
Time Temperature Dew Point Pressure Wind Wind Speed Wind Gust Humidity Rainfall Rate (Hourly) solar
00:07 7.1 °C 1.1 °C 1019.5 hPa East 6.4 km/h 17.7 km/h 66 % 0 mm 0.00 W/m2
00:12 7.1 °C 1.1 °C 1019.5 hPa East 8 km/h 19.3 km/h 66 % 0 mm 0.00 W/m2
00:17 7.1 °C 0.7 °C 1019.5 hPa East 3.2 km/h 17.7 km/h 64 % 0 mm 0.00 W/m2
00:27 7.1 °C 0.7 °C 1019.5 hPa Calm   19.3 km/h 64 % 0 mm 0.00 W/m2
00:32 7 °C 0.7 °C 1019.5 hPa East 8 km/h 19.3 km/h 64 % 0 mm 0.00 W/m2
00:37 6.9 °C 0.8 °C 1019.5 hPa ESE 6.4 km/h 12.9 km/h 65 % 0 mm 0.00 W/m2
00:42 6.9 °C 1.1 °C 1019.5 hPa ESE 6.4 km/h 12.9 km/h 66 % 0 mm 0.00 W/m2
00:47 6.9 °C 1.2 °C 1019.5 hPa ESE 6.4 km/h 14.5 km/h 67 % 0 mm 0.00 W/m2
00:53 6.8 °C 0.7 °C 1019.5 hPa ESE 3.2 km/h 12.9 km/h 65 % 0 mm 0.00 W/m2
00:58 6.8 °C 0.4 °C 1019.2 hPa ESE 12.9 km/h 14.5 km/h 64 % 0 mm 0.00 W/m2
01:03 6.8 °C 0.7 °C 1019.5 hPa ESE 1.6 km/h 12.9 km/h 65 % 0 mm 0.00 W/m2
01:08 6.7 °C 1.1 °C 1019.5 hPa Calm   11.3 km/h 67 % 0 mm 0.00 W/m2
01:13 6.7 °C 1.1 °C 1019.5 hPa ESE 9.7 km/h 14.5 km/h 67 % 0 mm 0.00 W/m2
01:18 6.7 °C 1 °C 1019.5 hPa Calm   12.9 km/h 67 % 0 mm 0.00 W/m2
01:28 6.6 °C 0.7 °C 1019.5 hPa Calm   20.9 km/h 66 % 0 mm 0.00 W/m2
01:33 6.5 °C 0.6 °C 1019.2 hPa ESE 1.6 km/h 11.3 km/h 66 % 0 mm 0.00 W/m2
01:38 6.5 °C 0.4 °C 1019.5 hPa ESE 3.2 km/h 8 km/h 65 % 0 mm 0.00 W/m2
01:48 6.4 °C 0.1 °C 1019.5 hPa Calm   12.9 km/h 64 % 0 mm 0.00 W/m2
01:53 6.4 °C 0.3 °C 1019.5 hPa Calm   17.7 km/h 65 % 0 mm 0.00 W/m2
01:58 6.4 °C 0.3 °C 1019.5 hPa Calm   9.7 km/h 65 % 0 mm 0.00 W/m2
02:08 6.3 °C 0.4 °C 1019.5 hPa ESE 9.7 km/h 14.5 km/h 66 % 0 mm 0.00 W/m2
02:13 6.2 °C 0.6 °C 1019.5 hPa Calm   9.7 km/h 67 % 0 mm 0.00 W/m2
02:28 6.1 °C 0.4 °C 1019.5 hPa Calm   8 km/h 67 % 0 mm 0.00 W/m2
02:38 5.9 °C 0.3 °C 1019.5 hPa Calm   9.7 km/h 67 % 0 mm 0.00 W/m2
02:43 5.9 °C 0.4 °C 1019.5 hPa ESE 8 km/h 9.7 km/h 68 % 0 mm 0.00 W/m2
02:53 5.8 °C 0.2 °C 1019.5 hPa ESE 1.6 km/h 11.3 km/h 67 % 0 mm 0.00 W/m2
02:58 5.8 °C 0.3 °C 1019.5 hPa ESE 9.7 km/h 12.9 km/h 68 % 0 mm 0.00 W/m2
03:03 5.8 °C -0.3 °C 1019.5 hPa ESE 8 km/h 12.9 km/h 65 % 0 mm 0.00 W/m2
03:08 5.8 °C -0.3 °C 1019.5 hPa ESE 3.2 km/h 12.9 km/h 65 % 0 mm 0.00 W/m2
03:13 5.8 °C -0.1 °C 1019.2 hPa Calm   11.3 km/h 66 % 0 mm 0.00 W/m2
03:18 5.8 °C -0.5 °C 1019.2 hPa ESE 6.4 km/h 11.3 km/h 64 % 0 mm 0.00 W/m2
03:23 5.8 °C -0.3 °C 1019.2 hPa Calm   12.9 km/h 65 % 0 mm 0.00 W/m2
03:28 5.8 °C -0.3 °C 1019.2 hPa Calm   19.3 km/h 65 % 0 mm 0.00 W/m2
03:33 5.8 °C -0.5 °C 1019.2 hPa East 3.2 km/h 14.5 km/h 64 % 0 mm 0.00 W/m2
03:43 5.8 °C -0.7 °C 1019.2 hPa ESE 9.7 km/h 14.5 km/h 63 % 0 mm 0.00 W/m2
03:48 5.8 °C -0.7 °C 1019.2 hPa ESE 9.7 km/h 17.7 km/h 63 % 0 mm 0.00 W/m2
03:53 5.8 °C -0.7 °C 1019.2 hPa ESE 14.5 km/h 17.7 km/h 63 % 0 mm 0.00 W/m2
03:58 5.8 °C -0.5 °C 1018.8 hPa ESE 3.2 km/h 19.3 km/h 64 % 0 mm 0.00 W/m2
04:03 5.8 °C -1.4 °C 1018.8 hPa East 17.7 km/h 17.7 km/h 60 % 0 mm 0.00 W/m2
04:08 5.8 °C -0.9 °C 1018.8 hPa East 8 km/h 22.5 km/h 62 % 0 mm 0.00 W/m2
04:13 5.8 °C -1.3 °C 1018.8 hPa ESE 11.3 km/h 19.3 km/h 60 % 0 mm 0.00 W/m2
04:28 5.9 °C -1.1 °C 1018.8 hPa ESE 1.6 km/h 19.3 km/h 61 % 0 mm 0.00 W/m2
04:39 5.9 °C -1.5 °C 1019.2 hPa ESE 8 km/h 17.7 km/h 59 % 0 mm 0.00 W/m2
04:44 5.9 °C -0.8 °C 1018.8 hPa ESE 9.7 km/h 17.7 km/h 62 % 0 mm 0.00 W/m2
04:49 5.9 °C -1.2 °C 1018.8 hPa ESE 1.6 km/h 20.9 km/h 60 % 0 mm 0.00 W/m2
05:04 5.9 °C -1.2 °C 1018.8 hPa ESE 9.7 km/h 19.3 km/h 60 % 0 mm 0.00 W/m2
05:14 5.9 °C -1.2 °C 1018.8 hPa ESE 3.2 km/h 12.9 km/h 60 % 0 mm 0.00 W/m2
05:19 5.9 °C -1.2 °C 1019.2 hPa ESE 12.9 km/h 19.3 km/h 60 % 0 mm 0.00 W/m2
05:24 5.9 °C -1.3 °C 1019.2 hPa Calm   11.3 km/h 60 % 0 mm 0.00 W/m2
05:29 5.9 °C -1.1 °C 1019.2 hPa Calm   11.3 km/h 61 % 0 mm 0.00 W/m2
05:44 5.9 °C -1.3 °C 1018.8 hPa Calm   12.9 km/h 60 % 0 mm 0.00 W/m2
05:54 5.8 °C -1.3 °C 1018.8 hPa Calm   14.5 km/h 60 % 0 mm 0.00 W/m2
06:04 5.8 °C -1.6 °C 1018.8 hPa ESE 3.2 km/h 14.5 km/h 59 % 0 mm 0.00 W/m2
06:09 5.8 °C -1.6 °C 1019.2 hPa ESE 6.4 km/h 17.7 km/h 59 % 0 mm 0.00 W/m2
06:14 5.8 °C -1.6 °C 1018.8 hPa ESE 11.3 km/h 20.9 km/h 59 % 0 mm 0.00 W/m2
06:19 5.9 °C -1.7 °C 1019.2 hPa East 9.7 km/h 17.7 km/h 58 % 0 mm 0.00 W/m2
06:29 5.9 °C -1.9 °C 1019.2 hPa ESE 11.3 km/h 19.3 km/h 57 % 0 mm 0.00 W/m2
06:34 6 °C -1.4 °C 1019.2 hPa Calm   17.7 km/h 59 % 0 mm 0.00 W/m2
06:39 6 °C -1.6 °C 1019.2 hPa Calm   17.7 km/h 58 % 0 mm 0.00 W/m2
06:44 6 °C -1.4 °C 1019.2 hPa ESE 1.6 km/h 14.5 km/h 59 % 0 mm 0.00 W/m2
06:49 6 °C -1.6 °C 1019.2 hPa ESE 9.7 km/h 20.9 km/h 58 % 0 mm 0.00 W/m2
06:59 6 °C -1.6 °C 1019.2 hPa ESE 19.3 km/h 22.5 km/h 58 % 0 mm 5.00 W/m2
07:04 6.1 °C -1.6 °C 1019.5 hPa ESE 9.7 km/h 14.5 km/h 58 % 0 mm 5.00 W/m2
07:14 6.1 °C -1.3 °C 1019.5 hPa East 11.3 km/h 20.9 km/h 59 % 0 mm 14.00 W/m2
07:24 6.1 °C -1.8 °C 1019.5 hPa Calm   19.3 km/h 57 % 0 mm 25.00 W/m2
07:29 6.1 °C -1.6 °C 1019.5 hPa East 14.5 km/h 19.3 km/h 58 % 0 mm 25.00 W/m2
07:30 6.1 °C -1.6 °C 1019.5 hPa East 12.9 km/h 19.3 km/h 58 % 0 mm 25.00 W/m2
07:35 6.1 °C -1.6 °C 1019.5 hPa East 9.7 km/h 14.5 km/h 58 % 0 mm 26.00 W/m2
07:45 6.2 °C -1.5 °C 1019.5 hPa ESE 1.6 km/h 12.9 km/h 58 % 0 mm 54.00 W/m2
07:50 6.2 °C -1.4 °C 1019.5 hPa Calm   14.5 km/h 58 % 0 mm 46.00 W/m2
07:55 6.3 °C -1.6 °C 1019.5 hPa ESE 6.4 km/h 17.7 km/h 57 % 0 mm 49.00 W/m2
08:00 6.3 °C -1.1 °C 1019.5 hPa ESE 8 km/h 19.3 km/h 59 % 0 mm 54.00 W/m2
08:05 6.3 °C -1.3 °C 1019.5 hPa ESE 9.7 km/h 19.3 km/h 58 % 0 mm 67.00 W/m2
08:20 6.6 °C -1.1 °C 1019.9 hPa ESE 12.9 km/h 17.7 km/h 58 % 0 mm 104.00 W/m2
08:30 6.7 °C -0.5 °C 1019.9 hPa Calm   14.5 km/h 60 % 0 mm 100.00 W/m2
08:35 6.8 °C -0.4 °C 1019.5 hPa Calm   17.7 km/h 60 % 0 mm 144.00 W/m2
08:40 6.9 °C -0.1 °C 1019.9 hPa ESE 3.2 km/h 17.7 km/h 61 % 0 mm 132.00 W/m2
08:55 7.3 °C -0.7 °C 1019.5 hPa ESE 8 km/h 12.9 km/h 57 % 0 mm 167.00 W/m2
09:10 7.7 °C -0.6 °C 1019.5 hPa ESE 6.4 km/h 12.9 km/h 56 % 0 mm 135.00 W/m2
09:15 7.8 °C -0.2 °C 1019.9 hPa Calm   12.9 km/h 57 % 0 mm 144.00 W/m2
09:20 7.9 °C -0.1 °C 1019.5 hPa ESE 6.4 km/h 17.7 km/h 57 % 0 mm 163.00 W/m2
09:25 7.9 °C -0.3 °C 1019.9 hPa ESE 1.6 km/h 12.9 km/h 56 % 0 mm 269.00 W/m2
09:30 8.1 °C 0.3 °C 1019.9 hPa Calm   14.5 km/h 58 % 0 mm 287.00 W/m2
09:35 8.1 °C 0.3 °C 1019.9 hPa Calm   12.9 km/h 58 % 0 mm 218.00 W/m2
09:40 8.2 °C 0.4 °C 1019.9 hPa Calm   14.5 km/h 58 % 0 mm 316.00 W/m2
09:45 8.3 °C 0.6 °C 1019.9 hPa ESE 6.4 km/h 11.3 km/h 58 % 0 mm 200.00 W/m2
09:50 8.4 °C 0.9 °C 1019.5 hPa Calm     59 % 0 mm 339.00 W/m2
09:55 8.6 °C 0.6 °C 1019.9 hPa Calm     57 % 0 mm 364.00 W/m2
09:56 8.6 °C 0.6 °C 1019.9 hPa ESE 3.2 km/h 11.3 km/h 57 % 0 mm 367.00 W/m2
10:01 8.7 °C 0.7 °C 1019.9 hPa Calm     57 % 0 mm 352.00 W/m2
10:11 9.2 °C 1.1 °C 1019.9 hPa Calm     57 % 0 mm 376.00 W/m2
10:15 9.3 °C 1.7 °C 1019.9 hPa Calm   8 km/h 59 % 0 mm 364.00 W/m2
10:20 9.5 °C 1.7 °C 1019.9 hPa Calm     58 % 0 mm 320.00 W/m2
10:25 9.7 °C 0.6 °C 1019.9 hPa Calm   11.3 km/h 53 % 0 mm 362.00 W/m2
10:30 9.9 °C 1.3 °C 1019.9 hPa Calm     55 % 0 mm 241.00 W/m2
10:35 10.1 °C 0.7 °C 1019.9 hPa Calm   9.7 km/h 52 % 0 mm 438.00 W/m2
10:40 10.2 °C 0.8 °C 1019.9 hPa Calm   8 km/h 52 % 0 mm 420.00 W/m2
10:45 10.4 °C 0.9 °C 1019.9 hPa Calm     52 % 0 mm 450.00 W/m2
10:55 10.7 °C 1.3 °C 1019.9 hPa SE 8 km/h 11.3 km/h 52 % 0 mm 241.00 W/m2
11:00 10.9 °C 1.2 °C 1019.5 hPa Calm   11.3 km/h 51 % 0 mm 287.00 W/m2
11:05 11 °C 2.1 °C 1019.5 hPa Calm     54 % 0 mm 410.00 W/m2
11:10 11.1 °C 2.4 °C 1019.5 hPa Calm     55 % 0 mm 352.00 W/m2
11:15 11.2 °C 2.8 °C 1019.5 hPa Calm   11.3 km/h 56 % 0 mm 388.00 W/m2
11:20 11.3 °C 3.1 °C 1019.2 hPa South 6.4 km/h 11.3 km/h 57 % 0 mm 485.00 W/m2
11:30 11.6 °C 3.1 °C 1019.2 hPa South 8 km/h 14.5 km/h 56 % 0 mm 425.00 W/m2
11:35 11.7 °C 3.2 °C 1019.2 hPa Calm   12.9 km/h 56 % 0 mm 239.00 W/m2
11:40 11.7 °C 3.7 °C 1019.2 hPa South 8 km/h 11.3 km/h 58 % 0 mm 497.00 W/m2
11:45 11.8 °C 3.8 °C 1019.2 hPa South 9.7 km/h 12.9 km/h 58 % 0 mm 473.00 W/m2
11:55 11.9 °C 3.9 °C 1019.2 hPa SW 8 km/h 12.9 km/h 58 % 0 mm 258.00 W/m2
12:00 11.9 °C 4.2 °C 1018.8 hPa South 4.8 km/h 11.3 km/h 59 % 0 mm 323.00 W/m2
12:05 11.9 °C 4.2 °C 1018.8 hPa South 9.7 km/h 11.3 km/h 59 % 0 mm 468.00 W/m2
12:10 11.9 °C 4.2 °C 1018.8 hPa SSE 9.7 km/h 12.9 km/h 59 % 0 mm 276.00 W/m2
12:15 11.9 °C 4.4 °C 1018.8 hPa Calm   11.3 km/h 60 % 0 mm 265.00 W/m2
12:22 11.9 °C 4.7 °C 1018.5 hPa South 3.2 km/h 14.5 km/h 61 % 0 mm 272.00 W/m2
12:28 11.9 °C 4.7 °C 1018.8 hPa Calm   11.3 km/h 61 % 0 mm 239.00 W/m2
12:33 11.9 °C 4.7 °C 1018.8 hPa South 6.4 km/h 9.7 km/h 61 % 0 mm 188.00 W/m2
12:43 11.9 °C 4.9 °C 1018.5 hPa Calm     62 % 0 mm 258.00 W/m2
12:53 11.9 °C 4.8 °C 1018.5 hPa Calm     62 % 0 mm 202.00 W/m2
12:58 11.9 °C 5.3 °C 1018.5 hPa Calm     64 % 0 mm 172.00 W/m2
13:03 11.9 °C 5.3 °C 1018.5 hPa Calm   8 km/h 64 % 0 mm 185.00 W/m2
13:18 11.8 °C 5.4 °C 1018.2 hPa Calm   6.4 km/h 65 % 0 mm 167.00 W/m2
13:23 11.8 °C 5.7 °C 1018.2 hPa Calm   6.4 km/h 66 % 0 mm 188.00 W/m2
13:28 11.8 °C 5.4 °C 1017.8 hPa South 8 km/h 11.3 km/h 65 % 0 mm 181.00 W/m2
13:38 11.7 °C 5.6 °C 1017.8 hPa Calm     66 % 0 mm 144.00 W/m2
13:44 11.7 °C 5.6 °C 1017.8 hPa Calm     66 % 0 mm 141.00 W/m2
13:54 11.7 °C 5.9 °C 1017.8 hPa Calm   9.7 km/h 68 % 0 mm 113.00 W/m2
13:59 11.6 °C 5.7 °C 1017.5 hPa Calm     67 % 0 mm 111.00 W/m2
14:14 11.6 °C 6.1 °C 1017.5 hPa Calm     69 % 0 mm 141.00 W/m2
14:19 11.5 °C 6.2 °C 1017.8 hPa Calm     70 % 0 mm 167.00 W/m2
14:24 11.4 °C 6.4 °C 1017.8 hPa Calm     71 % 0 mm 137.00 W/m2
14:29 11.4 °C 6.2 °C 1017.8 hPa Calm   1.6 km/h 70 % 0 mm 128.00 W/m2
14:34 11.4 °C 6.2 °C 1017.5 hPa South 8 km/h 8 km/h 70 % 0 mm 111.00 W/m2
14:44 11.3 °C 6.1 °C 1017.5 hPa Calm     70 % 0 mm 91.00 W/m2
14:49 11.3 °C 6.3 °C 1017.5 hPa South 6.4 km/h 9.7 km/h 71 % 0 mm 91.00 W/m2
14:54 11.3 °C 6.2 °C 1017.5 hPa South 6.4 km/h 8 km/h 71 % 0 mm 91.00 W/m2
14:59 11.2 °C 6.2 °C 1017.5 hPa Calm     71 % 0 mm 79.00 W/m2
15:04 11.2 °C 6.3 °C 1017.5 hPa South 8 km/h 8 km/h 72 % 0 mm 77.00 W/m2
15:09 11.1 °C 6.3 °C 1017.5 hPa Calm   1.6 km/h 72 % 0 mm 77.00 W/m2
15:14 11.1 °C 6.2 °C 1017.5 hPa Calm     72 % 0 mm 74.00 W/m2
15:19 11 °C 6.2 °C 1017.5 hPa Calm     72 % 0 mm 63.00 W/m2
15:24 10.9 °C 6.3 °C 1017.5 hPa Calm     73 % 0 mm 58.00 W/m2
15:29 10.9 °C 6.2 °C 1017.5 hPa Calm   1.6 km/h 73 % 0 mm 51.00 W/m2
15:34 10.8 °C 6.4 °C 1017.5 hPa Calm     74 % 0 mm 46.00 W/m2
15:44 10.7 °C 6.4 °C 1017.2 hPa Calm   6.4 km/h 75 % 0 mm 37.00 W/m2
15:54 10.4 °C 6.2 °C 1017.2 hPa Calm   9.7 km/h 75 % 0 mm 33.00 W/m2
15:59 10.4 °C 6.2 °C 1017.2 hPa SSE 9.7 km/h 9.7 km/h 75 % 0 mm 28.00 W/m2
16:04 10.3 °C 6.1 °C 1017.2 hPa Calm   12.9 km/h 75 % 0 mm 21.00 W/m2
16:09 10.2 °C 6.1 °C 1017.2 hPa SSE 1.6 km/h 11.3 km/h 76 % 0 mm 21.00 W/m2
16:14 10.1 °C 6.1 °C 1017.2 hPa SSE 6.4 km/h 8 km/h 76 % 0 mm 18.00 W/m2
16:19 10 °C 5.9 °C 1017.2 hPa Calm   8 km/h 76 % 0 mm 14.00 W/m2
16:29 9.8 °C 6 °C 1017.2 hPa Calm   9.7 km/h 77 % 0 mm 5.00 W/m2
16:39 9.7 °C 6 °C 1017.2 hPa Calm     78 % 0 mm 0.00 W/m2
16:44 9.6 °C 5.9 °C 1017.2 hPa Calm   9.7 km/h 78 % 0 mm 0.00 W/m2
16:50 9.4 °C 6 °C 1017.2 hPa SSE 6.4 km/h 9.7 km/h 79 % 0 mm 0.00 W/m2
16:55 9.3 °C 5.9 °C 1017.2 hPa Calm   11.3 km/h 79 % 0 mm 0.00 W/m2
17:00 9.3 °C 5.7 °C 1017.2 hPa SSE 3.2 km/h 11.3 km/h 78 % 0 mm 0.00 W/m2
17:05 9.2 °C 5.6 °C 1017.2 hPa Calm   11.3 km/h 78 % 0 mm 0.00 W/m2
17:10 9.2 °C 5.6 °C 1017.2 hPa SSE 8 km/h 12.9 km/h 78 % 0 mm 0.00 W/m2
17:15 9.1 °C 5.4 °C 1017.2 hPa SSE 1.6 km/h 14.5 km/h 78 % 0 mm 0.00 W/m2
17:20 9 °C 5.4 °C 1017.2 hPa Calm   11.3 km/h 78 % 0 mm 0.00 W/m2
17:25 8.9 °C 5.5 °C 1017.2 hPa Calm   12.9 km/h 79 % 0 mm 0.00 W/m2
17:40 8.8 °C 5.2 °C 1017.2 hPa SSE 9.7 km/h 12.9 km/h 78 % 0 mm 0.00 W/m2
17:45 8.8 °C 5.3 °C 1017.2 hPa SSE 3.2 km/h 12.9 km/h 79 % 0 mm 0.00 W/m2
17:50 8.8 °C 5.3 °C 1017.2 hPa SSE 8 km/h 12.9 km/h 79 % 0 mm 0.00 W/m2
17:55 8.8 °C 5.2 °C 1016.8 hPa SSE 9.7 km/h 16.1 km/h 78 % 0 mm 0.00 W/m2
18:00 8.7 °C 5.1 °C 1016.8 hPa Calm   16.1 km/h 78 % 0 mm 0.00 W/m2
18:05 8.8 °C 5.2 °C 1016.8 hPa SSE 3.2 km/h 16.1 km/h 78 % 0 mm 0.00 W/m2
18:10 8.8 °C 5.2 °C 1016.8 hPa Calm   14.5 km/h 78 % 0 mm 0.00 W/m2
18:15 8.8 °C 5.2 °C 1016.8 hPa Calm   14.5 km/h 78 % 0 mm 0.00 W/m2
18:25 8.8 °C 5.3 °C 1016.8 hPa SSE 6.4 km/h 12.9 km/h 79 % 0 mm 0.00 W/m2
18:30 8.8 °C 5.3 °C 1016.8 hPa SSE 6.4 km/h 9.7 km/h 79 % 0 mm 0.00 W/m2
18:35 8.8 °C 5.3 °C 1016.8 hPa SSE 6.4 km/h 11.3 km/h 79 % 0 mm 0.00 W/m2
18:45 8.7 °C 5.4 °C 1017.2 hPa Calm   8 km/h 80 % 0 mm 0.00 W/m2
18:50 8.7 °C 5.4 °C 1017.2 hPa Calm     80 % 0 mm 0.00 W/m2
19:00 8.6 °C 5.4 °C 1017.2 hPa Calm     80 % 0 mm 0.00 W/m2
19:05 8.6 °C 5.5 °C 1017.2 hPa Calm   1.6 km/h 81 % 0 mm 0.00 W/m2
19:10 8.6 °C 5.5 °C 1017.2 hPa Calm     81 % 0 mm 0.00 W/m2
19:15 8.4 °C 5.6 °C 1017.2 hPa Calm     82 % 0 mm 0.00 W/m2
19:20 8.4 °C 5.6 °C 1017.2 hPa Calm     82 % 0 mm 0.00 W/m2
19:25 8.4 °C 5.5 °C 1017.2 hPa SSE 1.6 km/h 1.6 km/h 82 % 0 mm 0.00 W/m2
19:30 8.3 °C 5.4 °C 1017.2 hPa SSE 6.4 km/h 11.3 km/h 82 % 0 mm 0.00 W/m2
19:35 8.3 °C 5.6 °C 1017.2 hPa Calm     83 % 0 mm 0.00 W/m2
19:40 8.2 °C 5.5 °C 1017.2 hPa Calm     83 % 0 mm 0.00 W/m2
19:45 8.2 °C 5.6 °C 1017.2 hPa Calm     84 % 0 mm 0.00 W/m2
19:50 8.2 °C 5.6 °C 1017.2 hPa Calm     84 % 0 mm 0.00 W/m2
19:55 8.2 °C 5.8 °C 1017.2 hPa Calm   14.5 km/h 85 % 0 mm 0.00 W/m2
20:00 8.2 °C 5.8 °C 1016.8 hPa SSE 9.7 km/h 12.9 km/h 85 % 0 mm 0.00 W/m2
20:05 8.2 °C 5.8 °C 1016.8 hPa SSE 11.3 km/h 16.1 km/h 85 % 0 mm 0.00 W/m2
20:10 8.2 °C 5.8 °C 1016.8 hPa SSE 8 km/h 9.7 km/h 85 % 0 mm 0.00 W/m2
20:15 8.3 °C 5.9 °C 1016.8 hPa SSE 9.7 km/h 12.9 km/h 85 % 0 mm 0.00 W/m2
20:20 8.3 °C 5.9 °C 1017.2 hPa SSE 11.3 km/h 14.5 km/h 85 % 0 mm 0.00 W/m2
20:25 8.3 °C 5.9 °C 1016.8 hPa SSE 12.9 km/h 12.9 km/h 85 % 0 mm 0.00 W/m2
20:30 8.3 °C 5.9 °C 1016.8 hPa SSE 14.5 km/h 14.5 km/h 85 % 0 mm 0.00 W/m2
20:35 8.3 °C 5.8 °C 1017.2 hPa SSE 3.2 km/h 3.2 km/h 84 % 0 mm 0.00 W/m2
20:40 8.4 °C 5.8 °C 1016.8 hPa SSE 11.3 km/h 12.9 km/h 84 % 0 mm 0.00 W/m2
20:45 8.4 °C 5.8 °C 1017.2 hPa SSE 8 km/h 12.9 km/h 84 % 0 mm 0.00 W/m2
20:47 8.4 °C 5.7 °C 1016.8 hPa SSE 1.6 km/h 14.5 km/h 83 % 0 mm 0.00 W/m2
20:52 8.4 °C 5.7 °C 1016.8 hPa SSE 3.2 km/h 19.3 km/h 83 % 0 mm 0.00 W/m2
20:57 8.4 °C 5.6 °C 1017.2 hPa SSE 9.7 km/h 17.7 km/h 82 % 0 mm 0.00 W/m2
21:02 8.5 °C 5.6 °C 1017.2 hPa SSE 12.9 km/h 20.9 km/h 82 % 0 mm 0.00 W/m2
21:13 8.5 °C 5.4 °C 1017.2 hPa SSE 12.9 km/h 17.7 km/h 81 % 0 mm 0.00 W/m2
21:18 8.5 °C 5.3 °C 1016.8 hPa SSE 12.9 km/h 20.9 km/h 80 % 0 mm 0.00 W/m2
21:43 8.6 °C 5.1 °C 1016.8 hPa South 9.7 km/h 24.1 km/h 79 % 0 mm 0.00 W/m2
21:48 8.6 °C 5.1 °C 1016.8 hPa South 12.9 km/h 22.5 km/h 79 % 0 mm 0.00 W/m2
21:53 8.6 °C 5.1 °C 1016.8 hPa SSE 11.3 km/h 20.9 km/h 79 % 0 mm 0.00 W/m2
21:58 8.6 °C 5.3 °C 1016.8 hPa South 14.5 km/h 16.1 km/h 80 % 0 mm 0.00 W/m2
22:08 8.6 °C 5.5 °C 1016.8 hPa South 14.5 km/h 16.1 km/h 81 % 0 mm 0.00 W/m2
22:13 8.5 °C 5.4 °C 1016.8 hPa South 6.4 km/h 19.3 km/h 81 % 0 mm 0.00 W/m2
22:23 8.4 °C 5.7 °C 1016.8 hPa SSE 6.4 km/h 24.1 km/h 83 % 0 mm 0.00 W/m2
22:28 8.4 °C 5.8 °C 1016.5 hPa South 22.5 km/h 22.5 km/h 84 % 0 mm 0.00 W/m2
22:38 8.2 °C 5.8 °C 1016.5 hPa Calm   27.4 km/h 85 % 0 mm 0.00 W/m2
22:43 8.1 °C 5.7 °C 1016.8 hPa Calm   19.3 km/h 85 % 0 mm 0.00 W/m2
22:48 8.1 °C 5.7 °C 1017.2 hPa Calm   6.4 km/h 85 % 0 mm 0.00 W/m2
22:53 8 °C 5.6 °C 1017.2 hPa SW 6.4 km/h 14.5 km/h 85 % 0 mm 0.00 W/m2
22:58 7.9 °C 5.6 °C 1017.2 hPa Calm   9.7 km/h 85 % 0 mm 0.00 W/m2
23:03 7.8 °C 5.7 °C 1017.2 hPa Calm   12.9 km/h 86 % 0 mm 0.00 W/m2
23:13 7.5 °C 4.6 °C 1016.8 hPa South 6.4 km/h 16.1 km/h 82 % 0 mm 0.00 W/m2
23:23 7.3 °C 4.8 °C 1017.2 hPa South 9.7 km/h 14.5 km/h 84 % 0 mm 0.00 W/m2
23:28 7.2 °C 4.8 °C 1016.8 hPa Calm   19.3 km/h 85 % 0 mm 0.00 W/m2
23:33 7.1 °C 4.9 °C 1017.2 hPa Calm   17.7 km/h 86 % 0 mm 0.00 W/m2
23:43 6.8 °C 4.9 °C 1016.8 hPa South 11.3 km/h 22.5 km/h 88 % 4.83 mm 0.00 W/m2
23:53 6.6 °C 4.9 °C 1016.8 hPa South 24.1 km/h 24.1 km/h 89 % 1.78 mm 0.00 W/m2
23:54 6.6 °C 4.9 °C 1016.8 hPa SSE 29 km/h 29 km/h 89 % 1.78 mm 0.00 W/m2
23:59 6.4 °C 4.9 °C 1016.8 hPa South 12.9 km/h 20.9 km/h 90 % 1.78 mm 0.00 W/m2
Juneau County Weather
Compliments of Weather Underground - 4.25 mb
 WU-history PHP script courtesy of   Juneau County Weather.
powered by Cumulus v1.9.3 (1059)
Ambient Weather VWS v14.00
Top Contact Website Map Copyright © 2007 - 2018 Foresthillweather.com Never base important decisions on this or any weather information obtained from the Internet